Weather Roundup
Issued by NWS Springfield, MO

Home | Current Version | Previous Version | Text Only | Print | Product List | Glossary On
Versions: 1 2 3 4 5 6 7 8 9 10 11 12 13 14 15 16 17 18 19 20 21 22 23 24 25 26 27 28 29 30 31 32 33 34 35 36 37 38 39 40 41 42 43 44 45 46 47 48 49 50
000
NZUS99 KSGF 121059
HRRSGF

HOURLY WEATHER
NATIONAL WEATHER SERVICE SPRINGFIELD MO
600 AM CDT SAT JUL 12 2014

......SGF CWA......

CITY           SKY/WX    TMP DP  RH WIND       PRES   REMARKS
SPRINGFIELD    CLEAR     72  68  87 S8        30.14R
JOPLIN         CLEAR     75  67  76 S7        30.13R
WEST PLAINS    CLOUDY    75  72  90 SW5       30.18R
ROLLA          CLOUDY    75  71  87 S9        30.12R
OSAGE BEACH    MOCLDY    75  70  83 S3        30.11R
BRANSON        PTCLDY    73  70  88 SW6       30.16S

......SURROUNDING SGF CWA......

CITY           SKY/WX    TMP DP  RH WIND       PRES   REMARKS
CHANUTE        CLEAR     72  67  84 S9        30.10R
PARSONS        CLEAR     71  67  87 S3        30.11R
COFFEYVILLE    CLEAR     72  68  87 S8        30.09S
EMPORIA        CLEAR     70  64  81 S10       30.07R
SILOAM SPRINGS CLEAR     72  63  73 S6        30.18R
HARRISON AR    CLEAR     73  68  84 CALM      30.17R
NEAR YELLVILLE CLEAR     73  70  88 CALM      30.14R

......KANSAS AND MISSOURI......

CITY           SKY/WX    TMP DP  RH WIND       PRES   REMARKS
KANSAS CTY INT MOCLDY    75  67  76 S12       30.05S
DOWNTOWN KC    PTCLDY    80  66  62 SW10      30.05R
COLUMBIA       CLOUDY    78  72  81 SW9       30.11R
SEDALIA        MOCLDY    77  71  82 SW9       30.10R
ST JOSEPH      CLOUDY    76  70  82 S8        30.02F
ST LOUIS       CLOUDY    81  72  74 SW8       30.10R
SPIRIT OF STL  CLOUDY    77  72  84 CALM      30.08R
KIRKSVILLE     CLOUDY    77  70  79 SW6       30.06R
WICHITA        PTCLDY    72  62  71 S7        30.06R
TOPEKA         PTCLDY    77  67  71 S8        30.04S
OLATHE         CLEAR     71  68  90 S6        30.07S

......TENNESSEE......

CITY           SKY/WX    TMP DP  RH WIND       PRES   REMARKS
MEMPHIS        PTCLDY    75  71  87 CALM      30.16R
NASHVILLE      PTCLDY    67  65  93 CALM      30.17S

......ARKANSAS.......

CITY           SKY/WX    TMP DP  RH WIND       PRES   REMARKS
FAYETTEVILLE   CLEAR     67  67 100 CALM      30.18R
FT SMITH       CLEAR     75  72  90 NE3       30.13R
LITTLE ROCK    PTCLDY    75  72  90 SW3       30.15R FOG

......OKLAHOMA.......

CITY           SKY/WX    TMP DP  RH WIND       PRES   REMARKS
TULSA          CLEAR     78  65  63 S10       30.10R
MCALESTER      PTCLDY    75  67  76 S5        30.14R
OKLAHOMA CITY  PTCLDY    71  62  73 S7        30.12S

......IOWA............

CITY           SKY/WX    TMP DP  RH WIND       PRES   REMARKS
DES MOINES     CLOUDY    72  68  87 CALM      30.01F
QUAD CITIES    CLOUDY    74  70  87 W3        30.00S

......ILLINOIS........

CITY           SKY/WX    TMP DP  RH WIND       PRES   REMARKS
QUINCY         CLOUDY    77  72  84 SW10      30.05R
CHICAGO        MOCLDY    73  60  63 S9        30.04R



USA.gov is the U.S. government's official web portal to all federal, state and local government web resources and services.